[[{"header":{"parameterUnit":"m.s-1","parameterCategory":1,"la1":30.2991,"la2":30.254,"lo1":-89.0895,"lo2":-89.0444,"dy":0.0017,"dx":0.0017,"nx":28,"ny":28,"refTime":"2024-05-07T21:00:00:Z","depth":0,"parameterNumber":2,"parameterNumberName":"U-component_of_WINDS"},"data":[0,0,0,0,0,0,0,0,0,0,0,0,0,0,0,0,0,0,0,0,0,0,0,0,0,0,0,0,0,0,0,0,0,0,0,0,0,0,0,0,0,0,0,0,0,0,0,0,0,0,0,0,0,0,0,0,0,0,-0.6757,-0.6757,0,-0.6719,-0.6719,-0.6718,-0.6724,-0.6725,-0.6725,-0.6726,-0.6686,-0.6684,-0.6683,0,0,0,0,0,0,0,0,0,0,0,0,0,-0.6833,-0.6831,-0.6757,-0.6757,-0.6756,-0.6719,-0.6719,-0.6718,-0.6724,-0.6725,-0.6725,-0.6726,-0.6687,-0.6685,-0.6683,0,0,0,0,0,0,0,0,0,0,0,0,0,-0.6798,-0.6831,-0.6757,-0.6754,-0.6754,-0.6719,-0.6719,-0.6718,-0.6724,-0.6725,-0.6726,-0.6727,-0.6687,-0.6685,-0.6682,-0.6648,0,0,-0.6675,-0.6674,0,0,0,0,0,0,0,0,-0.68,-0.6795,-0.6755,-0.6755,-0.6754,-0.6727,-0.6731,-0.6695,-0.6723,-0.6735,-0.6726,-0.6727,-0.6699,-0.6695,-0.6686,-0.6646,-0.6644,-0.6674,-0.6673,-0.6672,-0.6671,0,0,0,0,0,0,0,-0.6802,-0.6797,-0.6742,-0.6755,-0.6754,-0.6755,-0.6751,-0.6724,-0.6712,-0.6734,-0.6734,-0.673,-0.6699,-0.6689,-0.6685,-0.6644,-0.6675,-0.6672,-0.6671,-0.667,-0.6573,-0.6572,0,0,0,0,0,0,-0.6806,-0.6799,-0.6743,-0.6741,-0.678,-0.6753,-0.6748,-0.6735,-0.6712,-0.671,-0.6729,-0.673,-0.6692,-0.6688,-0.6684,-0.6642,-0.6672,-0.667,-0.6668,-0.6574,-0.6573,-0.6571,0,0,0,0,0,0,-0.6807,-0.6801,-0.6745,-0.677,-0.6763,-0.675,-0.6735,-0.6734,-0.6724,-0.6709,-0.6706,-0.6721,-0.6693,-0.6687,-0.6657,-0.664,-0.6668,-0.6666,-0.6575,-0.6574,-0.6572,-0.6557,0,0,0,0,0,0,-0.6809,-0.6801,-0.6788,-0.677,-0.6762,-0.6718,-0.6734,-0.6732,-0.6719,-0.6721,-0.6701,-0.6698,-0.6693,-0.666,-0.6654,-0.6637,-0.6664,-0.6577,-0.6574,-0.6573,-0.6559,-0.6555,-0.6552,0,0,0,0,0,-0.6812,-0.6785,-0.6787,-0.6781,-0.6745,-0.6717,-0.6713,-0.6708,-0.6718,-0.6705,-0.6695,-0.6699,-0.6644,-0.6657,-0.665,-0.6633,-0.6578,-0.6575,-0.6573,-0.656,-0.6556,-0.6552,0,0,0,0,0,0,-0.6802,-0.6783,-0.6785,-0.6751,-0.6736,-0.6718,-0.6701,-0.6703,-0.6685,-0.6686,-0.6681,-0.6677,-0.6645,-0.6636,-0.6652,-0.6598,-0.6612,-0.6608,-0.6605,-0.66,-0.6597,-0.6599,-0.6662,0,0,0,0,0,-0.6796,-0.6775,-0.676,-0.6731,-0.6724,-0.6714,-0.6702,-0.67,-0.6683,-0.6677,-0.6665,-0.6649,-0.6627,-0.6614,-0.6593,-0.6558,-0.6553,-0.6542,-0.6539,-0.6536,-0.6532,-0.6512,-0.6507,-0.6563,-0.6563,-0.6563,0,0,-0.6782,-0.677,-0.6757,-0.6729,-0.6717,-0.6695,-0.6708,-0.6685,-0.6669,-0.6673,-0.6643,-0.6634,-0.6616,-0.6582,-0.6567,-0.6573,-0.6516,-0.6533,-0.6531,-0.6529,-0.6509,-0.6504,-0.6499,-0.6562,-0.6562,-0.6562,0,0,-0.6747,-0.6736,-0.6711,-0.6699,-0.668,-0.6674,-0.6668,-0.665,-0.6644,-0.6615,-0.6617,-0.6598,-0.6562,-0.6548,-0.6537,-0.6497,-0.65,-0.6491,-0.6472,-0.6453,-0.6448,-0.6444,-0.6429,-0.6424,-0.6488,-0.6488,-0.6488,0,-0.6733,-0.6701,-0.6698,-0.6674,-0.6662,-0.6665,-0.6639,-0.6628,-0.6603,-0.6594,-0.6602,-0.6557,-0.6545,-0.6508,-0.6499,-0.649,-0.6482,-0.6493,-0.6449,-0.6445,-0.6441,-0.6427,-0.6422,-0.6487,-0.6487,-0.6487,-0.6487,0,-0.6685,-0.6662,-0.6644,-0.6621,-0.6607,-0.6582,-0.6575,-0.6561,-0.656,-0.6553,-0.6522,-0.6508,-0.6485,-0.6476,-0.6475,-0.6439,-0.6444,-0.6451,-0.6464,-0.6435,-0.6422,-0.6416,-0.6485,-0.6485,-0.6486,-0.6486,0,0,-0.6641,-0.6617,-0.661,-0.6599,-0.658,-0.6562,-0.6538,-0.6516,-0.6503,-0.6487,-0.6466,-0.6435,-0.6442,-0.6428,-0.6426,-0.6409,-0.6378,-0.6418,-0.6417,-0.641,-0.6337,-0.6331,-0.6325,-0.638,-0.6379,-0.6378,-0.6338,0,-0.6604,-0.6561,-0.6557,-0.6518,-0.6497,-0.6501,-0.6479,-0.6465,-0.6457,-0.6438,-0.6431,-0.6409,-0.6419,-0.6411,-0.6395,-0.6385,-0.6363,-0.6388,-0.636,-0.6359,-0.6363,-0.6318,-0.6312,-0.6275,-0.6333,-0.6332,-0.6331,0,-0.6554,-0.6536,-0.6495,-0.6478,-0.6469,-0.645,-0.6429,-0.6411,-0.6395,-0.6391,-0.6376,-0.6376,-0.6351,-0.6367,-0.6331,-0.6348,-0.6337,-0.633,-0.6329,-0.6325,-0.6342,-0.6312,-0.6263,-0.6257,-0.6323,-0.6324,-0.6324,0,-0.6525,-0.6491,-0.6462,-0.6453,-0.6433,-0.6419,-0.641,-0.6394,-0.6381,-0.6363,-0.6354,-0.6333,-0.6322,-0.6305,-0.63,-0.6312,-0.6264,-0.628,-0.626,-0.626,-0.6248,-0.6249,-0.6196,-0.6243,-0.6243,-0.6243,-0.6243,0,-0.6483,-0.6458,-0.6449,-0.6431,-0.6403,-0.6399,-0.6371,-0.6362,-0.6348,-0.6329,-0.6331,-0.6312,-0.6306,-0.6286,-0.6282,-0.6253,-0.6248,-0.6243,-0.6242,-0.6242,-0.6243,-0.6234,-0.6236,-0.6241,-0.6242,-0.6242,-0.6242,0,-0.6446,-0.6439,-0.6407,-0.6391,-0.6386,-0.6366,-0.6352,-0.6334,-0.6328,-0.6303,-0.6296,-0.6286,-0.6263,-0.6256,-0.6228,-0.6225,-0.6191,-0.6192,-0.6196,-0.6196,-0.6176,-0.6177,-0.6114,-0.6105,-0.6159,-0.6158,-0.6158,0,-0.6419,-0.64,-0.6381,-0.6368,-0.6358,-0.6337,-0.6324,-0.632,-0.6305,-0.6285,-0.627,-0.6247,-0.6229,-0.6192,-0.6181,-0.616,-0.6161,-0.614,-0.6157,-0.6158,-0.6159,-0.616,-0.6158,-0.6136,-0.6135,-0.6135,-0.6135,0,-0.6372,-0.6369,-0.635,-0.6329,-0.6313,-0.6297,-0.6281,-0.627,-0.6264,-0.6248,-0.6224,-0.621,-0.6182,-0.6159,-0.6137,-0.6127,-0.6129,-0.6129,-0.6124,-0.6123,-0.6126,-0.6123,-0.6186,-0.6131,-0.6131,-0.6131,-0.6132,-0.6132,-0.6338,-0.6321,-0.6305,-0.6283,-0.6271,-0.6256,-0.6239,-0.623,-0.6211,-0.6187,-0.6186,-0.6161,-0.6144,-0.6116,-0.6105,-0.6085,-0.6091,-0.6082,-0.608,-0.6078,-0.6076,-0.613,-0.6081,-0.6081,-0.6081,-0.6081,-0.6081,0,-0.6291,-0.6281,-0.6261,-0.6238,-0.6221,-0.6226,-0.6208,-0.6194,-0.6171,-0.6156,-0.6138,-0.6111,-0.6089,-0.6077,-0.6055,-0.6041,-0.6041,-0.6035,-0.6035,-0.6033,-0.6072,-0.6079,-0.6035,-0.6035,-0.6035,-0.6035,-0.6035,-0.6035,-0.6264,-0.6234,-0.623,-0.6195,-0.6185,-0.616,-0.615,-0.6136,-0.6124,-0.6093,-0.6075,-0.6068,-0.6054,-0.6031,-0.601,-0.6008,-0.5999,-0.5992,-0.5989,-0.6026,-0.603,-0.6035,-0.6041,-0.599,-0.599,-0.5952,-0.5952,-0.5952]},{"header":{"parameterUnit":"m.s-1","parameterCategory":1,"la1":30.2991,"la2":30.254,"lo1":-89.0895,"lo2":-89.0444,"dy":0.0017,"dx":0.0017,"nx":28,"ny":28,"refTime":"2024-05-07T21:00:00:Z","depth":0,"parameterNumber":3,"parameterNumberName":"V-component_of_WINDS"},"data":[0,0,0,0,0,0,0,0,0,0,0,0,0,0,0,0,0,0,0,0,0,0,0,0,0,0,0,0,0,0,0,0,0,0,0,0,0,0,0,0,0,0,0,0,0,0,0,0,0,0,0,0,0,0,0,0,0,0,5.4162,5.4162,0,5.4188,5.4188,5.4188,5.4141,5.414,5.4138,5.4137,5.4159,5.4161,5.4163,0,0,0,0,0,0,0,0,0,0,0,0,0,5.407,5.4072,5.4162,5.4162,5.4163,5.4188,5.4188,5.4188,5.4141,5.4139,5.4138,5.4136,5.4158,5.4161,5.4163,0,0,0,0,0,0,0,0,0,0,0,0,0,5.4104,5.4073,5.4162,5.4142,5.4141,5.4188,5.4188,5.4188,5.4142,5.4139,5.4137,5.4135,5.4158,5.4161,5.4164,5.423,0,0,5.4173,5.4174,0,0,0,0,0,0,0,0,5.4103,5.4108,5.4145,5.4144,5.4142,5.4159,5.4164,5.4202,5.4142,5.4141,5.4136,5.4134,5.4161,5.4163,5.4173,5.4231,5.4232,5.4173,5.4175,5.4177,5.4177,0,0,0,0,0,0,0,5.41,5.4106,5.4172,5.4146,5.4144,5.4132,5.4134,5.4171,5.4164,5.4141,5.4138,5.4142,5.4159,5.417,5.4173,5.4232,5.4173,5.4176,5.4178,5.4179,5.4348,5.435,0,0,0,0,0,0,5.4101,5.4105,5.4171,5.4173,5.4116,5.4135,5.4138,5.4156,5.4163,5.4162,5.4144,5.4139,5.4166,5.417,5.4174,5.4254,5.4177,5.4179,5.4181,5.4345,5.4348,5.4351,0,0,0,0,0,0,5.4099,5.4107,5.417,5.4138,5.4145,5.4139,5.416,5.4158,5.4168,5.4165,5.4163,5.4156,5.4165,5.417,5.4217,5.4254,5.4181,5.4184,5.4342,5.4346,5.435,5.4413,0,0,0,0,0,0,5.4097,5.4107,5.4132,5.4139,5.4147,5.4214,5.4162,5.416,5.4174,5.4169,5.4177,5.4175,5.4163,5.4213,5.422,5.4257,5.4186,5.4339,5.4344,5.4348,5.4408,5.4419,5.4428,0,0,0,0,0,5.4093,5.4147,5.4134,5.4142,5.4179,5.4216,5.422,5.4206,5.4177,5.4203,5.4201,5.4175,5.4249,5.4218,5.4226,5.4264,5.4336,5.4342,5.4348,5.4403,5.4416,5.4428,0,0,0,0,0,0,5.4143,5.4148,5.4133,5.419,5.4204,5.4208,5.4239,5.422,5.424,5.4234,5.4214,5.4217,5.4269,5.427,5.4236,5.433,5.4288,5.4295,5.4327,5.4339,5.4349,5.4348,5.4189,0,0,0,0,0,5.4161,5.4191,5.4194,5.4244,5.4252,5.4245,5.426,5.4249,5.426,5.4265,5.4267,5.4278,5.4304,5.4322,5.4345,5.4407,5.4409,5.4438,5.4448,5.4456,5.4464,5.4499,5.4513,5.437,5.437,5.437,0,0,5.4197,5.4204,5.4224,5.4255,5.4263,5.4296,5.4249,5.4284,5.4308,5.427,5.4316,5.4318,5.4329,5.4386,5.441,5.4389,5.4503,5.4464,5.4471,5.4473,5.4507,5.452,5.4532,5.4374,5.4374,5.4373,0,0,5.4281,5.4289,5.4333,5.4344,5.4358,5.4354,5.4365,5.4373,5.4373,5.4419,5.4392,5.4419,5.4463,5.4474,5.4485,5.4576,5.4554,5.4584,5.4638,5.4673,5.4684,5.4694,5.4729,5.4741,5.4591,5.4591,5.4591,0,5.4325,5.4373,5.4358,5.4397,5.4412,5.4381,5.4426,5.4436,5.4457,5.4468,5.4444,5.4502,5.4507,5.4566,5.4589,5.4598,5.4611,5.4584,5.4684,5.4694,5.4703,5.4735,5.4748,5.4595,5.4595,5.4594,5.4594,0,5.4427,5.4461,5.4495,5.4519,5.4538,5.4579,5.4571,5.4591,5.4578,5.4576,5.4625,5.463,5.4656,5.4669,5.4655,5.4727,5.4714,5.4687,5.4645,5.472,5.4751,5.4763,5.4601,5.4599,5.4598,5.4597,0,0,5.4542,5.4559,5.4572,5.4584,5.4599,5.4625,5.4665,5.4692,5.4711,5.4726,5.4761,5.48,5.4777,5.479,5.4777,5.4808,5.4882,5.4778,5.4778,5.4799,5.4964,5.4986,5.5,5.4867,5.487,5.4871,5.4964,0,5.4627,5.4699,5.4688,5.4758,5.479,5.4762,5.4798,5.4811,5.481,5.4837,5.4836,5.4865,5.4831,5.4839,5.4868,5.4867,5.4916,5.486,5.49,5.4901,5.4899,5.5016,5.5038,5.5125,5.4976,5.4977,5.4979,0,5.4736,5.4759,5.4833,5.4845,5.4858,5.4891,5.4916,5.4942,5.4956,5.4954,5.497,5.4952,5.4993,5.495,5.5006,5.4969,5.4984,5.4987,5.499,5.4994,5.4946,5.5025,5.5152,5.5166,5.4997,5.4996,5.4994,0,5.4815,5.4864,5.4915,5.4926,5.4941,5.4965,5.4972,5.4985,5.5002,5.5024,5.5035,5.506,5.5074,5.5094,5.5084,5.5053,5.5144,5.5098,5.5143,5.5144,5.5164,5.5163,5.5297,5.5172,5.5171,5.5171,5.5171,0,5.4912,5.4959,5.4952,5.4983,5.5035,5.5022,5.5073,5.5077,5.5089,5.512,5.5096,5.5126,5.5111,5.514,5.5132,5.5181,5.5187,5.5187,5.5184,5.519,5.519,5.52,5.5195,5.5175,5.5174,5.5173,5.5173,0,5.501,5.5007,5.5061,5.5073,5.5077,5.5115,5.5124,5.5153,5.5152,5.5193,5.5201,5.5198,5.5231,5.5224,5.5258,5.5253,5.5316,5.5305,5.5312,5.531,5.5356,5.5353,5.5503,5.5523,5.5383,5.5384,5.5385,0,5.5073,5.5109,5.5125,5.5146,5.5156,5.5189,5.5208,5.5197,5.5217,5.5238,5.5266,5.5297,5.5322,5.5376,5.5376,5.5404,5.5394,5.5445,5.5398,5.5403,5.5397,5.5396,5.5401,5.5455,5.5456,5.5458,5.5459,0,5.5186,5.5184,5.5213,5.5243,5.5267,5.5289,5.5308,5.5326,5.5316,5.5341,5.5376,5.5395,5.5433,5.5465,5.549,5.5497,5.5477,5.5473,5.5486,5.5492,5.5496,5.5497,5.534,5.547,5.5469,5.5468,5.5467,5.5467,5.527,5.5302,5.5319,5.5353,5.5367,5.5387,5.5417,5.542,5.5449,5.5481,5.5472,5.5512,5.5527,5.556,5.557,5.5601,5.5582,5.5599,5.5603,5.5608,5.5615,5.549,5.5605,5.5605,5.5604,5.5604,5.5604,0,5.5384,5.5395,5.5426,5.5456,5.5483,5.5463,5.5485,5.5508,5.5545,5.5561,5.5587,5.5628,5.566,5.5664,5.5693,5.5717,5.5709,5.5726,5.5724,5.5727,5.5629,5.5617,5.5732,5.5732,5.5732,5.5732,5.5732,5.5732,5.5446,5.55,5.55,5.5561,5.557,5.5612,5.5626,5.5644,5.5658,5.5705,5.5732,5.5735,5.5747,5.5778,5.5806,5.5806,5.5819,5.584,5.5837,5.5746,5.5733,5.5721,5.5709,5.5842,5.5842,5.5932,5.5933,5.5933]}]]